Time,TemperatureF,DewpointF,PressureIn,WindDirection,WindDirectionDegrees,WindSpeedMPH,WindSpeedGustMPH,Humidity,HourlyPrecipIn,Conditions,Clouds,dailyrainin,SoftwareType,DateUTC
2013-05-06 00:00:00,60.8,37.0,31.20,SE,124,0.0,6.0,41,0.00,,,0.00,VWS V14.01,2013-05-06 07:00:00,
2013-05-06 00:01:00,60.8,37.0,31.20,ESE,117,1.0,4.0,41,0.00,,,0.00,VWS V14.01,2013-05-06 07:01:00,
2013-05-06 00:06:00,60.7,36.9,31.20,SE,135,0.0,5.0,41,0.00,,,0.00,VWS V14.01,2013-05-06 07:06:00,
2013-05-06 00:11:00,60.7,36.9,31.20,SE,132,0.0,5.0,41,0.00,,,0.00,VWS V14.01,2013-05-06 07:11:00,
2013-05-06 00:16:00,60.7,36.3,31.20,SE,132,0.0,5.0,40,0.00,,,0.00,VWS V14.01,2013-05-06 07:16:00,
2013-05-06 00:21:00,60.7,36.3,31.20,SE,129,1.0,5.0,40,0.00,,,0.00,VWS V14.01,2013-05-06 07:21:00,
2013-05-06 00:26:00,60.6,36.2,31.20,SE,129,0.0,5.0,40,0.00,,,0.00,VWS V14.01,2013-05-06 07:26:00,
2013-05-06 00:30:00,60.6,35.5,31.20,SE,129,0.0,5.0,39,0.00,,,0.00,VWS V14.01,2013-05-06 07:30:00,
2013-05-06 00:31:00,60.6,35.5,31.20,SE,139,2.0,5.0,39,0.00,,,0.00,VWS V14.01,2013-05-06 07:31:00,
2013-05-06 00:35:00,60.6,35.5,31.20,ESE,121,1.0,5.0,39,0.00,,,0.00,VWS V14.01,2013-05-06 07:35:00,
2013-05-06 00:40:00,60.6,35.5,31.20,East,92,0.0,5.0,39,0.00,,,0.00,VWS V14.01,2013-05-06 07:40:00,
2013-05-06 00:45:00,60.5,35.4,31.20,SE,125,6.0,7.0,39,0.00,,,0.00,VWS V14.01,2013-05-06 07:45:00,
2013-05-06 00:50:00,60.4,34.0,31.20,ESE,123,7.0,9.0,37,0.00,,,0.00,VWS V14.01,2013-05-06 07:50:00,
2013-05-06 00:55:00,59.9,32.9,31.20,SSE,153,4.0,9.0,36,0.00,,,0.00,VWS V14.01,2013-05-06 07:55:00,
2013-05-06 01:00:00,59.5,31.9,31.20,ESE,117,0.0,4.0,35,0.00,,,0.00,VWS V14.01,2013-05-06 08:00:00,
2013-05-06 01:05:00,59.2,30.1,31.20,ESE,115,2.0,6.0,33,0.00,,,0.00,VWS V14.01,2013-05-06 08:05:00,
2013-05-06 01:10:00,59.0,29.2,31.20,ESE,115,0.0,6.0,32,0.00,,,0.00,VWS V14.01,2013-05-06 08:10:00,
2013-05-06 01:15:00,59.1,28.5,31.20,ESE,115,0.0,6.0,31,0.00,,,0.00,VWS V14.01,2013-05-06 08:15:00,
2013-05-06 01:20:00,59.3,27.9,31.20,ESE,115,0.0,6.0,30,0.00,,,0.00,VWS V14.01,2013-05-06 08:20:00,
2013-05-06 01:25:00,59.3,27.1,31.20,ESE,115,2.0,6.0,29,0.00,,,0.00,VWS V14.01,2013-05-06 08:25:00,
2013-05-06 01:30:00,59.4,26.3,31.20,ESE,106,2.0,4.0,28,0.00,,,0.00,VWS V14.01,2013-05-06 08:30:00,
2013-05-06 01:35:00,59.5,26.4,31.20,East,98,2.0,5.0,28,0.00,,,0.00,VWS V14.01,2013-05-06 08:35:00,
2013-05-06 01:40:00,59.3,26.2,31.20,East,93,0.0,6.0,28,0.00,,,0.00,VWS V14.01,2013-05-06 08:40:00,
2013-05-06 01:45:00,59.2,26.1,31.20,East,90,0.0,6.0,28,0.00,,,0.00,VWS V14.01,2013-05-06 08:45:00,
2013-05-06 01:50:00,59.0,25.1,31.20,East,80,3.0,6.0,27,0.01,,,0.01,VWS V14.01,2013-05-06 08:50:00,
2013-05-06 01:55:00,59.0,25.1,31.20,ENE,77,0.0,6.0,27,0.01,,,0.01,VWS V14.01,2013-05-06 08:55:00,
2013-05-06 02:00:00,59.0,25.1,31.20,ENE,77,0.0,4.0,27,0.01,,,0.01,VWS V14.01,2013-05-06 09:00:00,
2013-05-06 02:05:00,59.0,25.1,31.20,ENE,77,0.0,4.0,27,0.01,,,0.01,VWS V14.01,2013-05-06 09:05:00,
2013-05-06 02:10:00,59.0,25.1,31.20,ENE,76,0.0,4.0,27,0.01,,,0.01,VWS V14.01,2013-05-06 09:10:00,
2013-05-06 02:15:00,59.0,25.1,31.20,ENE,77,1.0,4.0,27,0.01,,,0.01,VWS V14.01,2013-05-06 09:15:00,
2013-05-06 02:20:00,59.0,24.2,31.20,ENE,77,0.0,4.0,26,0.01,,,0.01,VWS V14.01,2013-05-06 09:20:00,
2013-05-06 02:25:00,59.0,24.2,31.20,ENE,78,0.0,4.0,26,0.01,,,0.01,VWS V14.01,2013-05-06 09:25:00,
2013-05-06 02:30:00,59.0,24.2,31.20,ESE,113,0.0,2.0,26,0.02,,,0.02,VWS V14.01,2013-05-06 09:30:00,
2013-05-06 02:35:00,59.0,24.2,31.20,ESE,113,2.0,4.0,26,0.02,,,0.02,VWS V14.01,2013-05-06 09:35:00,
2013-05-06 02:40:00,59.0,23.2,31.20,ESE,113,0.0,4.0,25,0.03,,,0.03,VWS V14.01,2013-05-06 09:40:00,
2013-05-06 02:45:00,59.0,23.2,31.20,ESE,113,1.0,4.0,25,0.04,,,0.04,VWS V14.01,2013-05-06 09:45:00,
2013-05-06 02:50:00,58.8,23.1,31.20,ENE,78,4.0,6.0,25,0.04,,,0.04,VWS V14.01,2013-05-06 09:50:00,
2013-05-06 02:55:00,58.6,22.9,31.20,ENE,78,3.0,6.0,25,0.04,,,0.04,VWS V14.01,2013-05-06 09:55:00,
2013-05-06 03:00:00,58.5,21.9,31.20,East,86,4.0,6.0,24,0.04,,,0.05,VWS V14.01,2013-05-06 10:00:00,
2013-05-06 03:05:00,58.5,21.9,31.20,ENE,66,2.0,7.0,24,0.04,,,0.05,VWS V14.01,2013-05-06 10:05:00,
2013-05-06 03:10:00,58.5,21.9,31.20,ENE,78,5.0,7.0,24,0.04,,,0.05,VWS V14.01,2013-05-06 10:10:00,
2013-05-06 03:15:00,58.5,21.9,31.20,ENE,65,2.0,7.0,24,0.04,,,0.05,VWS V14.01,2013-05-06 10:15:00,
2013-05-06 03:20:00,58.4,21.8,31.20,East,87,5.0,7.0,24,0.04,,,0.05,VWS V14.01,2013-05-06 10:20:00,
2013-05-06 03:25:00,58.4,21.8,31.20,ENE,63,4.0,7.0,24,0.04,,,0.05,VWS V14.01,2013-05-06 10:25:00,
2013-05-06 03:30:00,58.4,21.8,31.20,ENE,69,2.0,4.0,24,0.04,,,0.05,VWS V14.01,2013-05-06 10:30:00,
2013-05-06 03:35:00,58.3,20.7,31.20,ENE,73,2.0,5.0,23,0.04,,,0.05,VWS V14.01,2013-05-06 10:35:00,
2013-05-06 03:40:00,58.3,20.7,31.20,ENE,67,3.0,5.0,23,0.04,,,0.05,VWS V14.01,2013-05-06 10:40:00,
2013-05-06 03:45:00,58.2,20.6,31.20,ENE,73,2.0,6.0,23,0.04,,,0.05,VWS V14.01,2013-05-06 10:45:00,
2013-05-06 03:50:00,58.2,20.6,31.20,East,82,1.0,6.0,23,0.05,,,0.06,VWS V14.01,2013-05-06 10:50:00,
2013-05-06 03:55:00,58.2,20.6,31.20,ENE,57,4.0,7.0,23,0.05,,,0.06,VWS V14.01,2013-05-06 10:55:00,
2013-05-06 04:00:00,58.1,20.5,31.20,ENE,64,3.0,5.0,23,0.02,,,0.07,VWS V14.01,2013-05-06 11:00:00,
2013-05-06 04:05:00,58.1,20.5,31.20,ENE,66,5.0,5.0,23,0.02,,,0.07,VWS V14.01,2013-05-06 11:05:00,
2013-05-06 04:10:00,58.1,19.5,31.20,ENE,69,5.0,7.0,22,0.03,,,0.08,VWS V14.01,2013-05-06 11:10:00,
2013-05-06 04:15:00,57.9,19.3,31.20,ENE,69,5.0,7.0,22,0.04,,,0.09,VWS V14.01,2013-05-06 11:15:00,
2013-05-06 04:20:00,57.9,19.3,31.20,NE,51,4.0,7.0,22,0.04,,,0.09,VWS V14.01,2013-05-06 11:20:00,
2013-05-06 04:25:00,57.9,19.3,31.20,ENE,64,2.0,7.0,22,0.04,,,0.09,VWS V14.01,2013-05-06 11:25:00,
2013-05-06 04:30:00,57.9,19.3,31.20,ENE,67,2.0,4.0,22,0.05,,,0.10,VWS V14.01,2013-05-06 11:30:00,
2013-05-06 04:35:00,57.9,19.3,31.20,ENE,65,4.0,4.0,22,0.05,,,0.10,VWS V14.01,2013-05-06 11:35:00,
2013-05-06 04:40:00,57.8,18.1,31.20,NE,49,3.0,5.0,21,0.05,,,0.10,VWS V14.01,2013-05-06 11:40:00,
2013-05-06 04:45:00,57.8,18.1,31.20,ENE,66,1.0,5.0,21,0.05,,,0.10,VWS V14.01,2013-05-06 11:45:00,
2013-05-06 04:50:00,57.8,18.1,31.20,NNE,25,3.0,5.0,21,0.05,,,0.10,VWS V14.01,2013-05-06 11:50:00,
2013-05-06 04:55:00,57.8,18.1,31.20,NE,37,3.0,5.0,21,0.06,,,0.11,VWS V14.01,2013-05-06 11:55:00,
2013-05-06 05:00:00,57.8,18.1,31.20,NE,41,4.0,5.0,21,0.06,,,0.13,VWS V14.01,2013-05-06 12:00:00,
2013-05-06 05:05:00,57.7,18.1,31.20,NE,42,6.0,6.0,21,0.07,,,0.14,VWS V14.01,2013-05-06 12:05:00,
2013-05-06 05:10:00,57.7,18.1,22.31,ENE,69,4.0,7.0,21,0.09,,,0.16,VWS V14.01,2013-05-06 12:10:00,
2013-05-06 05:15:00,57.6,18.0,22.31,ENE,69,4.0,11.0,21,0.09,,,0.16,VWS V14.01,2013-05-06 12:15:00,
2013-05-06 05:20:00,57.6,16.9,22.31,ENE,64,3.0,12.0,20,0.09,,,0.16,VWS V14.01,2013-05-06 12:20:00,
2013-05-06 05:25:00,57.7,16.9,22.31,SSE,153,2.0,12.0,20,0.09,,,0.16,VWS V14.01,2013-05-06 12:25:00,
2013-05-06 05:30:00,57.8,17.0,22.31,SSE,153,0.0,2.0,20,0.06,,,0.16,VWS V14.01,2013-05-06 12:30:00,
2013-05-06 05:35:00,57.7,16.9,22.31,ENE,75,2.0,4.0,20,0.06,,,0.16,VWS V14.01,2013-05-06 12:35:00,
2013-05-06 05:40:00,57.7,16.9,22.31,ENE,69,0.0,5.0,20,0.06,,,0.16,VWS V14.01,2013-05-06 12:40:00,
2013-05-06 05:45:00,57.8,17.0,22.31,ENE,60,0.0,5.0,20,0.06,,,0.16,VWS V14.01,2013-05-06 12:45:00,
2013-05-06 05:50:00,57.8,17.0,22.31,ESE,102,2.0,5.0,20,0.06,,,0.16,VWS V14.01,2013-05-06 12:50:00,
2013-05-06 05:55:00,57.6,16.9,22.31,NE,45,0.0,5.0,20,0.06,,,0.16,VWS V14.01,2013-05-06 12:55:00,
2013-05-06 06:00:00,57.6,16.9,22.31,NE,45,0.0,0.0,20,0.04,,,0.16,VWS V14.01,2013-05-06 13:00:00,
2013-05-06 06:05:00,57.7,16.9,22.31,NE,45,0.0,1.0,20,0.05,,,0.17,VWS V14.01,2013-05-06 13:05:00,
2013-05-06 06:10:00,57.7,16.9,22.31,NE,46,0.0,3.0,20,0.05,,,0.17,VWS V14.01,2013-05-06 13:10:00,
2013-05-06 06:15:00,57.8,15.8,22.31,NE,46,0.0,3.0,19,0.05,,,0.17,VWS V14.01,2013-05-06 13:15:00,
2013-05-06 06:20:00,57.8,15.8,22.31,NE,46,1.0,3.0,19,0.05,,,0.17,VWS V14.01,2013-05-06 13:20:00,
2013-05-06 06:25:00,57.9,15.9,22.31,NE,49,0.0,3.0,19,0.05,,,0.17,VWS V14.01,2013-05-06 13:25:00,
2013-05-06 06:30:00,57.9,15.9,22.31,NE,49,1.0,2.0,19,0.01,,,0.17,VWS V14.01,2013-05-06 13:30:00,
2013-05-06 06:35:00,58.1,16.1,22.31,NE,49,2.0,3.0,19,0.01,,,0.17,VWS V14.01,2013-05-06 13:35:00,
2013-05-06 06:40:00,58.1,16.1,22.31,NE,49,2.0,3.0,19,0.01,,,0.17,VWS V14.01,2013-05-06 13:40:00,
2013-05-06 06:45:00,58.2,16.2,22.31,NE,49,0.0,4.0,19,0.01,,,0.17,VWS V14.01,2013-05-06 13:45:00,
2013-05-06 06:50:00,58.2,16.2,22.31,NE,49,1.0,4.0,19,0.01,,,0.17,VWS V14.01,2013-05-06 13:50:00,
2013-05-06 06:55:00,58.2,16.2,22.31,ENE,62,2.0,4.0,19,0.01,,,0.17,VWS V14.01,2013-05-06 13:55:00,
2013-05-06 07:00:00,58.3,16.2,22.31,ENE,63,1.0,1.0,19,0.01,,,0.17,VWS V14.01,2013-05-06 14:00:00,
2013-05-06 07:05:00,58.4,16.3,22.31,ENE,63,0.0,3.0,19,0.01,,,0.17,VWS V14.01,2013-05-06 14:05:00,
2013-05-06 07:10:00,58.4,16.3,22.31,ENE,63,0.0,4.0,19,0.01,,,0.17,VWS V14.01,2013-05-06 14:10:00,
2013-05-06 07:15:00,58.5,16.4,22.31,ENE,63,3.0,4.0,19,0.01,,,0.17,VWS V14.01,2013-05-06 14:15:00,
2013-05-06 07:20:00,58.6,16.5,22.31,ENE,63,4.0,4.0,19,0.01,,,0.17,VWS V14.01,2013-05-06 14:20:00,
2013-05-06 07:25:00,58.6,16.5,22.31,ENE,70,4.0,4.0,19,0.01,,,0.17,VWS V14.01,2013-05-06 14:25:00,
2013-05-06 07:30:00,58.7,16.6,22.31,ENE,67,0.0,0.0,19,0.00,,,0.17,VWS V14.01,2013-05-06 14:30:00,
2013-05-06 07:35:00,58.8,16.7,22.31,ENE,67,0.0,3.0,19,0.00,,,0.17,VWS V14.01,2013-05-06 14:35:00,
2013-05-06 07:40:00,59.0,16.8,22.31,ENE,67,0.0,3.0,19,0.00,,,0.17,VWS V14.01,2013-05-06 14:40:00,
2013-05-06 07:45:00,59.0,16.8,22.31,ENE,67,0.0,3.0,19,0.00,,,0.17,VWS V14.01,2013-05-06 14:45:00,
2013-05-06 07:50:00,59.0,16.8,22.31,ENE,67,0.0,4.0,19,0.00,,,0.17,VWS V14.01,2013-05-06 14:50:00,
2013-05-06 07:55:00,59.2,17.0,22.31,ENE,67,3.0,4.0,19,0.00,,,0.17,VWS V14.01,2013-05-06 14:55:00,
2013-05-06 08:00:00,59.5,17.2,22.31,ENE,67,0.0,2.0,19,0.00,,,0.17,VWS V14.01,2013-05-06 15:00:00,
2013-05-06 08:05:00,59.6,17.3,22.31,ENE,67,1.0,3.0,19,0.00,,,0.17,VWS V14.01,2013-05-06 15:05:00,
2013-05-06 08:10:00,59.7,17.4,22.31,ENE,67,0.0,4.0,19,0.00,,,0.17,VWS V14.01,2013-05-06 15:10:00,
2013-05-06 08:15:00,60.0,17.6,22.31,ENE,67,0.0,4.0,19,0.00,,,0.17,VWS V14.01,2013-05-06 15:15:00,
2013-05-06 08:20:00,60.5,18.1,22.31,ENE,67,0.0,4.0,19,0.00,,,0.17,VWS V14.01,2013-05-06 15:20:00,
2013-05-06 08:25:00,61.4,18.8,22.31,ENE,67,0.0,4.0,19,0.00,,,0.17,VWS V14.01,2013-05-06 15:25:00,
2013-05-06 08:30:00,61.8,19.1,22.31,East,79,0.0,3.0,19,0.00,,,0.17,VWS V14.01,2013-05-06 15:30:00,
2013-05-06 08:35:00,61.7,20.2,22.31,East,80,2.0,3.0,20,0.00,,,0.17,VWS V14.01,2013-05-06 15:35:00,
2013-05-06 08:40:00,61.6,21.3,22.31,East,80,1.0,3.0,21,0.00,,,0.17,VWS V14.01,2013-05-06 15:40:00,
2013-05-06 08:45:00,61.2,22.1,22.31,East,79,2.0,3.0,22,0.00,,,0.17,VWS V14.01,2013-05-06 15:45:00,
2013-05-06 08:50:00,61.1,24.1,22.31,East,79,0.0,3.0,24,0.00,,,0.17,VWS V14.01,2013-05-06 15:50:00,
2013-05-06 08:55:00,61.3,24.2,22.31,East,79,0.0,3.0,24,0.00,,,0.17,VWS V14.01,2013-05-06 15:55:00,
2013-05-06 09:00:00,61.5,25.4,22.31,East,79,1.0,1.0,25,0.00,,,0.17,VWS V14.01,2013-05-06 16:00:00,
2013-05-06 09:05:00,61.4,26.2,22.31,East,79,3.0,4.0,26,0.00,,,0.17,VWS V14.01,2013-05-06 16:05:00,
2013-05-06 09:10:00,61.6,27.3,22.31,East,79,1.0,4.0,27,0.00,,,0.17,VWS V14.01,2013-05-06 16:10:00,
2013-05-06 09:15:00,61.7,27.4,22.31,East,79,0.0,4.0,27,0.00,,,0.17,VWS V14.01,2013-05-06 16:15:00,
2013-05-06 09:20:00,62.0,27.7,22.31,ENE,74,2.0,4.0,27,0.00,,,0.17,VWS V14.01,2013-05-06 16:20:00,
2013-05-06 09:25:00,61.9,29.3,22.31,ENE,74,2.0,4.0,29,0.00,,,0.17,VWS V14.01,2013-05-06 16:25:00,
2013-05-06 09:30:00,62.0,30.2,22.31,ENE,74,0.0,0.0,30,0.00,,,0.17,VWS V14.01,2013-05-06 16:30:00,
2013-05-06 09:35:00,62.2,31.2,22.31,ENE,74,0.0,1.0,31,0.01,,,0.18,VWS V14.01,2013-05-06 16:35:00,
2013-05-06 09:40:00,62.4,31.4,22.31,ENE,74,0.0,1.0,31,0.03,,,0.20,VWS V14.01,2013-05-06 16:40:00,
2013-05-06 09:45:00,62.0,31.8,22.31,ENE,74,0.0,1.0,32,0.04,,,0.21,VWS V14.01,2013-05-06 16:45:00,
2013-05-06 09:50:00,61.7,32.3,22.31,ENE,74,1.0,1.0,33,0.04,,,0.21,VWS V14.01,2013-05-06 16:50:00,
2013-05-06 09:55:00,61.9,32.5,22.31,ENE,74,0.0,1.0,33,0.04,,,0.21,VWS V14.01,2013-05-06 16:55:00,
2013-05-06 10:00:00,62.3,32.1,22.31,ENE,74,0.0,1.0,32,0.04,,,0.21,VWS V14.01,2013-05-06 17:00:00,
2013-05-06 10:05:00,62.5,33.0,22.31,ENE,74,0.0,1.0,33,0.04,,,0.21,VWS V14.01,2013-05-06 17:05:00,
2013-05-06 10:10:00,62.9,33.4,22.31,ENE,74,0.0,2.0,33,0.04,,,0.21,VWS V14.01,2013-05-06 17:10:00,
2013-05-06 10:15:00,63.8,34.2,22.31,ENE,74,1.0,2.0,33,0.04,,,0.21,VWS V14.01,2013-05-06 17:15:00,
2013-05-06 10:20:00,64.2,34.5,22.31,South,169,0.0,10.0,33,0.04,,,0.21,VWS V14.01,2013-05-06 17:20:00,
2013-05-06 10:25:00,64.0,35.1,22.31,SSW,194,2.0,10.0,34,0.04,,,0.21,VWS V14.01,2013-05-06 17:25:00,
2013-05-06 10:30:00,63.4,35.3,22.31,WSW,240,0.0,1.0,35,0.04,,,0.21,VWS V14.01,2013-05-06 17:30:00,
2013-05-06 10:35:00,63.2,35.1,22.31,WSW,254,2.0,4.0,35,0.04,,,0.21,VWS V14.01,2013-05-06 17:35:00,
2013-05-06 10:40:00,63.2,35.1,22.31,WSW,252,1.0,4.0,35,0.04,,,0.21,VWS V14.01,2013-05-06 17:40:00,
2013-05-06 10:45:00,63.3,34.5,22.31,WSW,256,2.0,4.0,34,0.04,,,0.21,VWS V14.01,2013-05-06 17:45:00,
2013-05-06 10:50:00,63.2,35.1,22.31,WSW,252,1.0,4.0,35,0.04,,,0.21,VWS V14.01,2013-05-06 17:50:00,
2013-05-06 10:55:00,63.3,35.9,22.31,SSW,212,0.0,5.0,36,0.04,,,0.21,VWS V14.01,2013-05-06 17:55:00,
2013-05-06 11:00:00,63.4,36.7,22.31,SSW,213,3.0,3.0,37,0.00,,,0.21,VWS V14.01,2013-05-06 18:00:00,
2013-05-06 11:05:00,63.0,37.0,22.31,SW,221,3.0,8.0,38,0.00,,,0.21,VWS V14.01,2013-05-06 18:05:00,
2013-05-06 11:10:00,62.8,36.8,22.31,SSW,213,6.0,8.0,38,0.00,,,0.21,VWS V14.01,2013-05-06 18:10:00,
2013-05-06 11:15:00,62.9,36.9,22.31,WSW,258,5.0,8.0,38,0.00,,,0.21,VWS V14.01,2013-05-06 18:15:00,
2013-05-06 11:20:00,63.1,37.1,22.31,SSW,199,2.0,10.0,38,0.00,,,0.21,VWS V14.01,2013-05-06 18:20:00,
2013-05-06 11:25:00,63.5,37.5,22.31,WSW,237,0.0,10.0,38,0.00,,,0.21,VWS V14.01,2013-05-06 18:25:00,
2013-05-06 11:30:00,63.8,37.7,22.31,SW,217,4.0,5.0,38,0.00,,,0.21,VWS V14.01,2013-05-06 18:30:00,
2013-05-06 11:35:00,64.1,38.7,22.31,SW,217,1.0,8.0,39,0.00,,,0.21,VWS V14.01,2013-05-06 18:35:00,
2013-05-06 11:40:00,64.1,38.7,22.31,WSW,254,6.0,8.0,39,0.00,,,0.21,VWS V14.01,2013-05-06 18:40:00,
2013-05-06 11:45:00,63.9,38.5,22.31,SW,236,7.0,8.0,39,0.00,,,0.21,VWS V14.01,2013-05-06 18:45:00,
2013-05-06 11:50:00,63.7,38.3,22.31,West,261,3.0,8.0,39,0.00,,,0.21,VWS V14.01,2013-05-06 18:50:00,
2013-05-06 11:55:00,63.6,38.9,22.31,SW,224,4.0,8.0,40,0.00,,,0.21,VWS V14.01,2013-05-06 18:55:00,
2013-05-06 12:00:00,63.8,39.0,22.31,WSW,238,2.0,6.0,40,0.00,,,0.21,VWS V14.01,2013-05-06 19:00:00,
2013-05-06 12:05:00,64.0,39.2,22.31,SSW,211,1.0,6.0,40,0.00,,,0.21,VWS V14.01,2013-05-06 19:05:00,
2013-05-06 12:10:00,64.0,39.2,22.31,South,176,5.0,6.0,40,0.00,,,0.21,VWS V14.01,2013-05-06 19:10:00,
2013-05-06 12:15:00,64.1,39.3,22.31,SW,219,0.0,6.0,40,0.00,,,0.21,VWS V14.01,2013-05-06 19:15:00,
2013-05-06 12:20:00,64.4,39.6,22.31,SSW,212,0.0,8.0,40,0.00,,,0.21,VWS V14.01,2013-05-06 19:20:00,
2013-05-06 12:24:00,64.0,39.2,22.31,SSW,208,0.0,11.0,40,0.00,,,0.21,VWS V14.01,2013-05-06 19:24:00,
2013-05-06 12:29:00,63.8,39.7,22.31,SSW,211,4.0,4.0,41,0.00,,,0.21,VWS V14.01,2013-05-06 19:29:00,
2013-05-06 12:30:00,63.8,39.7,22.31,SSW,202,3.0,11.0,41,0.00,,,0.21,VWS V14.01,2013-05-06 19:30:00,
2013-05-06 12:34:00,63.7,39.6,22.31,SSW,201,7.0,7.0,41,0.00,,,0.21,VWS V14.01,2013-05-06 19:34:00,
2013-05-06 12:39:00,63.6,39.5,22.31,WSW,256,4.0,9.0,41,0.00,,,0.21,VWS V14.01,2013-05-06 19:39:00,
2013-05-06 12:44:00,64.1,39.3,22.31,West,261,0.0,9.0,40,0.00,,,0.21,VWS V14.01,2013-05-06 19:44:00,
2013-05-06 12:49:00,64.7,39.2,22.31,WNW,288,0.0,9.0,39,0.00,,,0.21,VWS V14.01,2013-05-06 19:49:00,
2013-05-06 12:54:00,64.7,39.2,22.31,SW,228,1.0,9.0,39,0.00,,,0.21,VWS V14.01,2013-05-06 19:54:00,
2013-05-06 12:59:00,64.7,39.2,22.31,SW,224,0.0,5.0,39,0.00,,,0.21,VWS V14.01,2013-05-06 19:59:00,
2013-05-06 13:00:00,64.7,39.2,22.31,SW,219,5.0,9.0,39,0.00,,,0.21,VWS V14.01,2013-05-06 20:00:00,
2013-05-06 13:04:00,64.5,39.7,22.31,WSW,252,5.0,8.0,40,0.00,,,0.21,VWS V14.01,2013-05-06 20:04:00,
2013-05-06 13:09:00,64.9,40.0,22.31,WSW,240,8.0,9.0,40,0.00,,,0.21,VWS V14.01,2013-05-06 20:09:00,
2013-05-06 13:14:00,65.1,40.8,22.31,WSW,256,4.0,9.0,41,0.00,,,0.21,VWS V14.01,2013-05-06 20:14:00,
2013-05-06 13:19:00,65.2,40.9,22.31,West,259,2.0,9.0,41,0.00,,,0.21,VWS V14.01,2013-05-06 20:19:00,
2013-05-06 13:24:00,64.9,41.3,22.31,South,178,1.0,9.0,42,0.00,,,0.21,VWS V14.01,2013-05-06 20:24:00,
2013-05-06 13:29:00,64.8,41.2,22.31,SSW,203,7.0,7.0,42,0.00,,,0.21,VWS V14.01,2013-05-06 20:29:00,
2013-05-06 13:34:00,64.8,40.6,22.31,SSW,208,6.0,9.0,41,0.00,,,0.21,VWS V14.01,2013-05-06 20:34:00,
2013-05-06 13:39:00,64.7,41.1,22.31,SSW,200,2.0,11.0,42,0.00,,,0.21,VWS V14.01,2013-05-06 20:39:00,
2013-05-06 13:44:00,65.2,40.9,22.31,SW,232,4.0,11.0,41,0.00,,,0.21,VWS V14.01,2013-05-06 20:44:00,
2013-05-06 13:49:00,65.1,40.8,22.31,South,185,1.0,11.0,41,0.00,,,0.21,VWS V14.01,2013-05-06 20:49:00,
2013-05-06 13:54:00,65.6,41.9,22.31,SSW,210,7.0,11.0,42,0.00,,,0.21,VWS V14.01,2013-05-06 20:54:00,
2013-05-06 13:59:00,65.7,41.4,22.31,SW,225,3.0,5.0,41,0.00,,,0.21,VWS V14.01,2013-05-06 20:59:00,
2013-05-06 14:04:00,66.5,42.1,22.31,SW,233,3.0,5.0,41,0.00,,,0.21,VWS V14.01,2013-05-06 21:04:00,
2013-05-06 14:09:00,66.1,41.7,22.31,SSW,209,7.0,11.0,41,0.00,,,0.21,VWS V14.01,2013-05-06 21:09:00,
2013-05-06 14:14:00,65.8,42.1,22.31,WSW,250,5.0,12.0,42,0.00,,,0.21,VWS V14.01,2013-05-06 21:14:00,
2013-05-06 14:19:00,65.9,42.2,22.31,SW,217,6.0,12.0,42,0.00,,,0.21,VWS V14.01,2013-05-06 21:19:00,
2013-05-06 14:24:00,65.8,41.5,22.31,South,181,0.0,12.0,41,0.00,,,0.21,VWS V14.01,2013-05-06 21:24:00,
2013-05-06 14:29:00,66.3,43.2,22.31,SW,217,6.0,7.0,43,0.00,,,0.21,VWS V14.01,2013-05-06 21:29:00,
2013-05-06 14:30:00,66.3,42.5,22.31,SSW,197,6.0,12.0,42,0.00,,,0.21,VWS V14.01,2013-05-06 21:30:00,
2013-05-06 14:34:00,65.7,42.6,22.31,WSW,254,7.0,8.0,43,0.00,,,0.21,VWS V14.01,2013-05-06 21:34:00,
2013-05-06 14:39:00,65.7,42.0,22.31,WSW,237,6.0,11.0,42,0.00,,,0.21,VWS V14.01,2013-05-06 21:39:00,
2013-05-06 14:44:00,65.5,42.4,22.31,SSW,202,2.0,13.0,43,0.00,,,0.21,VWS V14.01,2013-05-06 21:44:00,
2013-05-06 14:49:00,65.7,42.6,22.31,SW,221,5.0,13.0,43,0.00,,,0.21,VWS V14.01,2013-05-06 21:49:00,
2013-05-06 14:54:00,65.4,42.3,22.31,SSW,201,5.0,13.0,43,0.00,,,0.21,VWS V14.01,2013-05-06 21:54:00,
2013-05-06 14:59:00,65.1,42.1,22.31,SSW,198,3.0,12.0,43,0.00,,,0.21,VWS V14.01,2013-05-06 21:59:00,
2013-05-06 15:00:00,65.1,42.1,22.31,SSW,212,3.0,13.0,43,0.00,,,0.21,VWS V14.01,2013-05-06 22:00:00,
2013-05-06 15:04:00,65.0,42.6,22.31,SSW,196,4.0,12.0,44,0.00,,,0.21,VWS V14.01,2013-05-06 22:04:00,
2013-05-06 15:09:00,64.9,42.5,22.31,SW,224,4.0,12.0,44,0.00,,,0.21,VWS V14.01,2013-05-06 22:09:00,
2013-05-06 15:14:00,64.7,42.3,22.31,SSW,212,6.0,12.0,44,0.00,,,0.21,VWS V14.01,2013-05-06 22:14:00,
2013-05-06 15:19:00,64.4,42.0,22.31,SSW,202,4.0,12.0,44,0.00,,,0.21,VWS V14.01,2013-05-06 22:19:00,
2013-05-06 15:24:00,64.1,41.2,22.31,SW,218,5.0,12.0,43,0.00,,,0.21,VWS V14.01,2013-05-06 22:24:00,
2013-05-06 15:29:00,64.2,41.3,22.31,SW,215,0.0,4.0,43,0.00,,,0.21,VWS V14.01,2013-05-06 22:29:00,
2013-05-06 15:30:00,64.1,41.2,22.31,SW,229,3.0,12.0,43,0.00,,,0.21,VWS V14.01,2013-05-06 22:30:00,
2013-05-06 15:34:00,64.3,41.3,22.31,SW,234,5.0,9.0,43,0.00,,,0.21,VWS V14.01,2013-05-06 22:34:00,
2013-05-06 15:39:00,64.5,41.5,22.31,SSE,168,4.0,9.0,43,0.00,,,0.21,VWS V14.01,2013-05-06 22:39:00,
2013-05-06 15:44:00,64.8,41.8,22.31,WSW,244,4.0,9.0,43,0.00,,,0.21,VWS V14.01,2013-05-06 22:44:00,
2013-05-06 15:49:00,64.9,41.9,22.31,SSW,211,5.0,9.0,43,0.00,,,0.21,VWS V14.01,2013-05-06 22:49:00,
2013-05-06 15:54:00,65.0,42.0,22.31,SSW,200,5.0,9.0,43,0.00,,,0.21,VWS V14.01,2013-05-06 22:54:00,
2013-05-06 15:59:00,65.2,42.2,22.31,SSW,192,1.0,3.0,43,0.00,,,0.21,VWS V14.01,2013-05-06 22:59:00,
2013-05-06 16:00:00,65.2,42.2,22.31,SSW,198,0.0,9.0,43,0.00,,,0.21,VWS V14.01,2013-05-06 23:00:00,
2013-05-06 16:04:00,65.0,42.0,22.31,SW,231,4.0,10.0,43,0.00,,,0.21,VWS V14.01,2013-05-06 23:04:00,
2013-05-06 16:09:00,64.8,42.4,22.31,South,191,9.0,10.0,44,0.00,,,0.21,VWS V14.01,2013-05-06 23:09:00,
2013-05-06 16:14:00,64.6,42.2,22.31,SSW,211,5.0,10.0,44,0.00,,,0.21,VWS V14.01,2013-05-06 23:14:00,
2013-05-06 16:19:00,64.7,41.7,22.31,SSW,212,5.0,10.0,43,0.00,,,0.21,VWS V14.01,2013-05-06 23:19:00,
2013-05-06 16:24:00,64.8,41.8,22.31,SW,225,4.0,10.0,43,0.00,,,0.21,VWS V14.01,2013-05-06 23:24:00,
2013-05-06 16:29:00,64.6,41.6,22.31,SSW,193,3.0,5.0,43,0.00,,,0.21,VWS V14.01,2013-05-06 23:29:00,
2013-05-06 16:30:00,64.6,41.6,22.31,South,176,1.0,10.0,43,0.00,,,0.21,VWS V14.01,2013-05-06 23:30:00,
2013-05-06 16:34:00,64.3,41.3,22.31,SSE,166,5.0,9.0,43,0.00,,,0.21,VWS V14.01,2013-05-06 23:34:00,
2013-05-06 16:39:00,64.1,41.2,22.31,SSE,165,6.0,9.0,43,0.00,,,0.21,VWS V14.01,2013-05-06 23:39:00,
2013-05-06 16:44:00,64.0,40.5,22.31,SW,223,9.0,10.0,42,0.00,,,0.21,VWS V14.01,2013-05-06 23:44:00,
2013-05-06 16:49:00,64.0,40.5,22.31,WSW,252,6.0,10.0,42,0.00,,,0.21,VWS V14.01,2013-05-06 23:49:00,
2013-05-06 16:54:00,64.1,40.6,22.31,SW,226,6.0,10.0,42,0.00,,,0.21,VWS V14.01,2013-05-06 23:54:00,
2013-05-06 16:59:00,64.0,40.5,22.31,SSE,157,4.0,5.0,42,0.00,,,0.21,VWS V14.01,2013-05-06 23:59:00,
2013-05-06 17:00:00,64.0,40.5,22.31,SW,217,2.0,10.0,42,0.00,,,0.21,VWS V14.01,2013-05-07 00:00:00,
2013-05-06 17:04:00,64.1,40.6,22.31,SW,218,7.0,9.0,42,0.00,,,0.21,VWS V14.01,2013-05-07 00:04:00,
2013-05-06 17:09:00,63.8,40.3,22.31,SW,236,3.0,9.0,42,0.00,,,0.21,VWS V14.01,2013-05-07 00:09:00,
2013-05-06 17:14:00,63.8,40.3,22.31,SSW,209,2.0,9.0,42,0.00,,,0.21,VWS V14.01,2013-05-07 00:14:00,
2013-05-06 17:19:00,63.8,40.9,22.31,SW,217,3.0,9.0,43,0.00,,,0.21,VWS V14.01,2013-05-07 00:19:00,
2013-05-06 17:24:00,63.9,41.0,22.31,SW,217,0.0,9.0,43,0.00,,,0.21,VWS V14.01,2013-05-07 00:24:00,
2013-05-06 17:29:00,64.2,41.3,22.31,SW,215,2.0,4.0,43,0.00,,,0.21,VWS V14.01,2013-05-07 00:29:00,
2013-05-06 17:30:00,64.2,41.3,22.31,SSW,209,3.0,9.0,43,0.00,,,0.21,VWS V14.01,2013-05-07 00:30:00,
2013-05-06 17:34:00,64.3,41.3,22.31,SW,217,0.0,5.0,43,0.00,,,0.21,VWS V14.01,2013-05-07 00:34:00,
2013-05-06 17:39:00,64.4,41.4,22.31,SW,217,0.0,5.0,43,0.00,,,0.21,VWS V14.01,2013-05-07 00:39:00,
2013-05-06 17:44:00,64.4,41.4,22.31,WSW,237,0.0,6.0,43,0.00,,,0.21,VWS V14.01,2013-05-07 00:44:00,
2013-05-06 17:49:00,64.5,41.5,22.31,WSW,239,1.0,6.0,43,0.00,,,0.21,VWS V14.01,2013-05-07 00:49:00,
2013-05-06 17:54:00,64.4,41.4,22.31,SW,221,2.0,6.0,43,0.00,,,0.21,VWS V14.01,2013-05-07 00:54:00,
2013-05-06 17:59:00,64.6,42.2,21.04,SSW,211,5.0,5.0,44,0.00,,,0.21,VWS V14.01,2013-05-07 00:59:00,
2013-05-06 18:00:00,64.6,42.2,22.31,SSW,213,0.0,6.0,44,0.00,,,0.21,VWS V14.01,2013-05-07 01:00:00,
2013-05-06 18:04:00,64.6,42.2,21.04,South,191,5.0,7.0,44,0.00,,,0.21,VWS V14.01,2013-05-07 01:04:00,
2013-05-06 18:09:00,64.3,41.9,21.04,SW,224,2.0,7.0,44,0.00,,,0.21,VWS V14.01,2013-05-07 01:09:00,
2013-05-06 18:14:00,64.1,41.8,21.04,WSW,249,0.0,7.0,44,0.00,,,0.21,VWS V14.01,2013-05-07 01:14:00,
2013-05-06 18:19:00,63.7,41.4,21.04,WSW,244,5.0,7.0,44,0.00,,,0.21,VWS V14.01,2013-05-07 01:19:00,
2013-05-06 18:24:00,63.6,41.3,21.04,WSW,240,6.0,7.0,44,0.00,,,0.21,VWS V14.01,2013-05-07 01:24:00,
2013-05-06 18:29:00,63.6,41.3,21.04,SW,233,0.0,0.0,44,0.00,,,0.21,VWS V14.01,2013-05-07 01:29:00,
2013-05-06 18:34:00,64.1,41.8,21.04,SSW,203,2.0,4.0,44,0.00,,,0.21,VWS V14.01,2013-05-07 01:34:00,
2013-05-06 18:39:00,64.3,41.3,21.04,SW,226,2.0,9.0,43,0.00,,,0.21,VWS V14.01,2013-05-07 01:39:00,
2013-05-06 18:44:00,64.3,41.9,21.04,South,187,4.0,9.0,44,0.00,,,0.21,VWS V14.01,2013-05-07 01:44:00,
2013-05-06 18:49:00,64.1,41.8,21.04,SSW,208,1.0,9.0,44,0.00,,,0.21,VWS V14.01,2013-05-07 01:49:00,
2013-05-06 18:54:00,64.0,41.7,21.04,South,181,3.0,9.0,44,0.00,,,0.21,VWS V14.01,2013-05-07 01:54:00,
2013-05-06 18:59:00,63.9,41.6,21.04,SW,225,5.0,5.0,44,0.00,,,0.21,VWS V14.01,2013-05-07 01:59:00,
2013-05-06 19:04:00,63.8,41.5,21.04,SSW,206,4.0,6.0,44,0.00,,,0.21,VWS V14.01,2013-05-07 02:04:00,
2013-05-06 19:09:00,63.5,41.2,21.04,SW,227,1.0,6.0,44,0.00,,,0.21,VWS V14.01,2013-05-07 02:09:00,
2013-05-06 19:14:00,63.2,41.0,21.04,SW,222,0.0,6.0,44,0.00,,,0.21,VWS V14.01,2013-05-07 02:14:00,
2013-05-06 19:19:00,63.0,40.8,21.04,SW,218,0.0,6.0,44,0.00,,,0.21,VWS V14.01,2013-05-07 02:19:00,
2013-05-06 19:24:00,62.6,39.8,21.04,SSW,211,2.0,6.0,43,0.00,,,0.21,VWS V14.01,2013-05-07 02:24:00,
2013-05-06 19:29:00,62.4,39.6,21.04,SSW,210,0.0,0.0,43,0.00,,,0.21,VWS V14.01,2013-05-07 02:29:00,
2013-05-06 19:30:00,62.5,39.7,21.04,SSW,209,0.0,6.0,43,0.00,,,0.21,VWS V14.01,2013-05-07 02:30:00,
2013-05-06 19:34:00,62.2,38.8,21.04,SW,228,0.0,7.0,42,0.00,,,0.21,VWS V14.01,2013-05-07 02:34:00,
2013-05-06 19:39:00,62.0,38.7,21.04,SW,228,2.0,7.0,42,0.00,,,0.21,VWS V14.01,2013-05-07 02:39:00,
2013-05-06 19:44:00,61.8,37.9,21.04,SW,227,0.0,7.0,41,0.00,,,0.21,VWS V14.01,2013-05-07 02:44:00,
2013-05-06 19:49:00,61.7,37.8,21.04,SW,227,0.0,7.0,41,0.00,,,0.21,VWS V14.01,2013-05-07 02:49:00,
2013-05-06 19:54:00,61.6,37.1,21.04,SW,227,0.0,7.0,40,0.00,,,0.21,VWS V14.01,2013-05-07 02:54:00,
2013-05-06 19:59:00,61.5,36.3,21.04,SW,227,1.0,1.0,39,0.00,,,0.21,VWS V14.01,2013-05-07 02:59:00,
2013-05-06 20:04:00,61.4,34.9,21.04,SW,227,0.0,2.0,37,0.00,,,0.21,VWS V14.01,2013-05-07 03:04:00,
2013-05-06 20:09:00,61.3,34.1,21.04,SW,227,0.0,2.0,36,0.00,,,0.21,VWS V14.01,2013-05-07 03:09:00,
2013-05-06 20:14:00,61.2,33.3,21.04,SW,227,0.0,2.0,35,0.00,,,0.21,VWS V14.01,2013-05-07 03:14:00,
2013-05-06 20:19:00,61.0,32.5,21.04,SW,227,0.0,2.0,34,0.00,,,0.21,VWS V14.01,2013-05-07 03:19:00,
2013-05-06 20:24:00,60.8,32.3,21.04,SW,227,0.0,2.0,34,0.00,,,0.21,VWS V14.01,2013-05-07 03:24:00,
2013-05-06 20:29:00,60.7,31.5,21.04,SW,227,0.0,0.0,33,0.00,,,0.21,VWS V14.01,2013-05-07 03:29:00,
2013-05-06 20:30:00,60.7,31.5,21.04,SW,227,0.0,2.0,33,0.00,,,0.21,VWS V14.01,2013-05-07 03:30:00,
2013-05-06 20:34:00,60.6,30.6,21.04,SW,227,0.0,0.0,32,0.00,,,0.21,VWS V14.01,2013-05-07 03:34:00,
2013-05-06 20:39:00,60.5,30.5,21.04,SW,227,0.0,1.0,32,0.00,,,0.21,VWS V14.01,2013-05-07 03:39:00,
2013-05-06 20:44:00,60.6,29.8,21.04,SW,227,0.0,1.0,31,0.00,,,0.21,VWS V14.01,2013-05-07 03:44:00,
2013-05-06 20:49:00,60.5,28.9,21.04,SW,227,0.0,1.0,30,0.00,,,0.21,VWS V14.01,2013-05-07 03:49:00,
2013-05-06 20:54:00,60.5,28.9,21.04,SW,227,0.0,1.0,30,0.00,,,0.21,VWS V14.01,2013-05-07 03:54:00,
2013-05-06 20:59:00,60.5,28.1,21.04,SW,227,0.0,0.0,29,0.00,,,0.21,VWS V14.01,2013-05-07 03:59:00,
2013-05-06 21:00:00,60.5,28.1,21.04,SW,227,0.0,1.0,29,0.00,,,0.21,VWS V14.01,2013-05-07 04:00:00,
2013-05-06 21:01:00,60.6,28.2,21.04,SW,227,0.0,0.0,29,0.00,,,0.21,VWS V14.01,2013-05-07 04:01:00,
2013-05-06 21:06:00,60.7,27.4,21.04,SW,227,0.0,0.0,28,0.00,,,0.21,VWS V14.01,2013-05-07 04:06:00,
2013-05-06 21:11:00,60.8,27.5,21.04,SW,227,0.0,0.0,28,0.00,,,0.21,VWS V14.01,2013-05-07 04:11:00,
2013-05-06 21:16:00,60.8,26.6,21.04,SW,227,0.0,0.0,27,0.00,,,0.21,VWS V14.01,2013-05-07 04:16:00,
2013-05-06 21:21:00,60.8,26.6,21.04,SW,227,0.0,1.0,27,0.00,,,0.21,VWS V14.01,2013-05-07 04:21:00,
2013-05-06 21:26:00,60.8,26.6,21.04,SW,227,0.0,1.0,27,0.00,,,0.21,VWS V14.01,2013-05-07 04:26:00,
2013-05-06 21:30:00,60.8,26.6,21.04,SW,227,0.0,1.0,27,0.00,,,0.21,VWS V14.01,2013-05-07 04:30:00,
2013-05-06 21:31:00,60.8,26.6,21.04,SW,227,1.0,1.0,27,0.00,,,0.21,VWS V14.01,2013-05-07 04:31:00,
2013-05-06 21:36:00,60.9,26.7,21.04,SW,227,0.0,2.0,27,0.00,,,0.21,VWS V14.01,2013-05-07 04:36:00,
2013-05-06 21:41:00,60.9,25.8,21.04,SW,227,0.0,2.0,26,0.00,,,0.21,VWS V14.01,2013-05-07 04:41:00,
2013-05-06 21:46:00,60.9,26.7,21.04,SW,227,3.0,3.0,27,0.00,,,0.21,VWS V14.01,2013-05-07 04:46:00,
2013-05-06 21:51:00,60.7,26.5,21.04,SW,227,0.0,3.0,27,0.00,,,0.21,VWS V14.01,2013-05-07 04:51:00,
2013-05-06 21:56:00,60.6,26.5,21.04,SW,227,0.0,3.0,27,0.00,,,0.21,VWS V14.01,2013-05-07 04:56:00,
2013-05-06 22:00:00,60.5,26.4,21.04,SW,227,0.0,3.0,27,0.00,,,0.21,VWS V14.01,2013-05-07 05:00:00,
2013-05-06 22:01:00,60.4,26.3,21.04,SW,227,0.0,0.0,27,0.00,,,0.21,VWS V14.01,2013-05-07 05:01:00,
2013-05-06 22:06:00,60.4,26.3,21.04,SW,227,0.0,0.0,27,0.00,,,0.21,VWS V14.01,2013-05-07 05:06:00,
2013-05-06 22:11:00,60.3,26.2,21.04,SW,227,0.0,0.0,27,0.00,,,0.21,VWS V14.01,2013-05-07 05:11:00,
2013-05-06 22:16:00,60.2,26.1,21.04,SW,227,0.0,0.0,27,0.00,,,0.21,VWS V14.01,2013-05-07 05:16:00,
2013-05-06 22:21:00,60.0,26.0,21.04,SW,227,0.0,0.0,27,0.00,,,0.21,VWS V14.01,2013-05-07 05:21:00,
2013-05-06 22:26:00,59.8,25.8,21.04,SW,227,0.0,2.0,27,0.00,,,0.21,VWS V14.01,2013-05-07 05:26:00,
2013-05-06 22:31:00,59.7,25.7,21.04,SW,227,0.0,1.0,27,0.00,,,0.21,VWS V14.01,2013-05-07 05:31:00,
2013-05-06 22:36:00,59.6,25.6,21.04,SW,227,0.0,1.0,27,0.00,,,0.21,VWS V14.01,2013-05-07 05:36:00,
2013-05-06 22:41:00,59.5,26.4,21.04,SW,227,0.0,1.0,28,0.00,,,0.21,VWS V14.01,2013-05-07 05:41:00,
2013-05-06 22:46:00,59.5,25.5,21.04,SW,227,0.0,1.0,27,0.00,,,0.21,VWS V14.01,2013-05-07 05:46:00,
2013-05-06 22:51:00,59.5,25.5,21.04,SW,227,0.0,1.0,27,0.00,,,0.21,VWS V14.01,2013-05-07 05:51:00,
2013-05-06 22:56:00,59.5,25.5,21.04,SW,227,0.0,2.0,27,0.00,,,0.21,VWS V14.01,2013-05-07 05:56:00,
2013-05-06 23:00:00,59.5,25.5,21.04,SW,227,0.0,2.0,27,0.00,,,0.21,VWS V14.01,2013-05-07 06:00:00,
2013-05-06 23:01:00,59.5,25.5,21.04,SW,227,0.0,2.0,27,0.00,,,0.21,VWS V14.01,2013-05-07 06:01:00,
2013-05-06 23:06:00,59.5,25.5,21.04,SW,227,0.0,2.0,27,0.00,,,0.21,VWS V14.01,2013-05-07 06:06:00,
2013-05-06 23:11:00,59.6,25.6,21.04,SW,227,0.0,2.0,27,0.00,,,0.21,VWS V14.01,2013-05-07 06:11:00,
2013-05-06 23:16:00,59.7,25.7,21.04,SW,227,0.0,2.0,27,0.00,,,0.21,VWS V14.01,2013-05-07 06:16:00,
2013-05-06 23:21:00,59.8,25.8,21.04,SW,227,0.0,2.0,27,0.00,,,0.21,VWS V14.01,2013-05-07 06:21:00,
2013-05-06 23:26:00,59.8,25.8,21.04,SW,227,0.0,2.0,27,0.00,,,0.21,VWS V14.01,2013-05-07 06:26:00,
2013-05-06 23:30:00,59.8,25.8,21.04,SW,227,0.0,2.0,27,0.00,,,0.21,VWS V14.01,2013-05-07 06:30:00,
2013-05-06 23:31:00,59.8,25.8,21.04,SW,227,0.0,0.0,27,0.00,,,0.21,VWS V14.01,2013-05-07 06:31:00,
2013-05-06 23:36:00,59.9,26.7,21.34,SW,227,0.0,0.0,28,0.00,,,0.21,VWS V14.01,2013-05-07 06:36:00,
2013-05-06 23:41:00,59.8,26.6,21.34,SW,227,0.0,2.0,28,0.00,,,0.21,VWS V14.01,2013-05-07 06:41:00,
2013-05-06 23:46:00,59.9,26.7,21.34,SW,227,0.0,2.0,28,0.00,,,0.21,VWS V14.01,2013-05-07 06:46:00,
2013-05-06 23:51:00,60.0,26.8,21.34,SW,227,0.0,2.0,28,0.00,,,0.21,VWS V14.01,2013-05-07 06:51:00,
2013-05-06 23:56:00,60.0,26.8,21.34,SW,227,0.0,2.0,28,0.00,,,0.21,VWS V14.01,2013-05-07 06:56:00,